Regional Weather Roundup
Issued by NWS

Home | Current Version | Previous Version | Graphics & Text | Print | Product List | Glossary On
Versions: 1 2 3 4 5 6 7 8 9 10 11 12 13 14 15 16 17 18 19 20 21 22 23 24 25 26 27
000
ASUS45 KCYS 231310
RWRWY

WYOMING REGIONAL WEATHER ROUNDUP
NATIONAL WEATHER SERVICE CHEYENNE WY
600 AM MST THU FEB 23 2017

NOTE:  "FAIR" INDICATES FEW OR NO CLOUDS BELOW 12,000 FEET
WITH NO SIGNIFICANT WEATHER AND/OR OBSTRUCTIONS TO VISIBILITY.

WYZ001-231400-
YELLOWSTONE NATIONAL PARK

CITY           SKY/WX    TMP DP  RH WIND       PRES   REMARKS
LK YELLOWSTONE   N/A     14   8  77 VRB3      29.63F
W YELLOWSTONE  NOT AVBL

$$
WYZ002>013-054>058-071-098>099-231400-
NORTHERN WYOMING

CITY           SKY/WX    TMP DP  RH WIND       PRES   REMARKS
JACKSON        CLOUDY    18  16  93 N18       29.58S WCI   2
CODY           FLURRIES  24  22  91 N14G24    29.77R WCI  12
GREYBULL       FAIR      30  24  78 NW10      29.71F WCI  21
WORLAND        CLOUDY    29  27  92 N6        29.71S WCI  23
SHERIDAN       CLOUDY    28  26  92 VRB7      29.83S WCI  21
BUFFALO        CLOUDY    27  23  85 N9        29.79S WCI  18
GILLETTE       CLOUDY    27  24  89 NE17      29.78F WCI  14
HULETT         CLOUDY    28  27  93 NE9       29.82S FOG     WCI  20
NEWCASTLE      PTSUNNY   28  28 100 CALM      29.76S

$$
WYZ014>020-022>026-101>103-231400-
CENTRAL WYOMING

CITY           SKY/WX    TMP DP  RH WIND       PRES   REMARKS
BIG PINEY      LGT SNOW  20  17  88 N14       29.53S WCI   7
PINEDALE       CLOUDY    18  10  73 NW14      29.52F WCI   4
DUBOIS         CLOUDY    21  18  86 SE6       29.57S WCI  14
LANDER         LGT SNOW  26  25  96 N13       29.60F VSB 3/4 WCI  15
RIVERTON       LGT SNOW  26  25  96 N15       29.60F VSB 1   WCI  14
CASPER         SNOW      24  23  96 NE24      29.65S VSB 1/2 WCI   8
DOUGLAS        SNOW      25  23  92 E10       29.70R VSB 1/2 WCI  15

$$
WYZ021-027>030-104>119-231400-
SOUTHERN WYOMING

CITY           SKY/WX    TMP DP  RH WIND       PRES   REMARKS
EVANSTON       CLOUDY    18  14  84 SW8       29.57S WCI   8
FORT BRIDGER   LGT SNOW  20  20 100 W21       29.58S WCI   4
ROCK SPRINGS   LGT SNOW  24  21  88 VRB6      29.49S VSB 3/4 WCI  17
DIXON            N/A     27  26  93 SW7       29.47R WCI  20
RAWLINS        SNOW      24  21  88 NE23G32   29.42F VSB 1/2 WCI   9
SARATOGA       HVY SNOW  27  27 100 CALM      29.40F VSB 1/4
LARAMIE        FAIR      25  19  78 SE25G31   29.46F WCI   9
CHEYENNE       LGT SNOW  27  26  96 E15G24    29.58F FOG     WCI  15
TORRINGTON     SNOW      27  26  96 E10       29.69F VSB 1/2 WCI  17
PINE BLUFFS    CLOUDY    30  30 100 E12G20    29.64F WCI  21

$$




USA.gov is the U.S. government's official web portal to all federal, state and local government web resources and services.